Regional Weather Roundup
Issued by NWS

Home | Current Version | Previous Version | Graphics & Text | Print | Product List | Glossary On
Versions: 1 2 3 4 5 6 7 8 9 10 11 12 13 14 15 16 17 18 19 20 21 22 23 24 25 26 27 28 29 30 31 32 33 34 35 36 37 38 39 40 41 42 43 44 45 46 47 48 49 50
000
ASUS45 KBOI 240610
RWRID
WEATHER ROUNDUP FOR IDAHO
NATIONAL WEATHER SERVICE BOISE ID
1200 AM MDT THU JUL 24 2014

NOTE: "FAIR" INDICATES FEW OR NO CLOUDS BELOW 12000 FEET
WITH NO SIGNIFICANT WEATHER AND/OR OBSTRUCTIONS TO VISIBILITY

IDZ012-014-240700-
SOUTHWEST IDAHO


CITY           SKY/WX    TMP DP  RH WIND       PRES   REMARKS
BOISE          CLEAR     78  37  22 W7        29.93R
CALDWELL       CLEAR     70  45  40 NW12      29.97R
MOUNTAIN HOME  CLEAR     78  40  25 CALM      29.93R
$$

IDZ016-017-240700-
SOUTHCENTRAL IDAHO


CITY           SKY/WX    TMP DP  RH WIND       PRES   REMARKS
BURLEY         PTCLDY    72  49  44 W10       29.99R
JEROME         CLEAR     70  46  42 W3        29.99R
TWIN FALLS     CLEAR     76  40  27 SW12      30.00S
$$

IDZ019>023-240700-
SOUTHEAST IDAHO


CITY           SKY/WX    TMP DP  RH WIND       PRES   REMARKS
IDAHO FALLS    CLEAR     66  47  50 W8        29.98R
POCATELLO      CLEAR     74  41  30 SW13      29.99R
REXBURG        CLEAR     61  50  67 CALM      29.97S
$$

IDZ006-010-011-018-031-032-240700-
CENTRAL IDAHO MOUNTAINS


CITY           SKY/WX    TMP DP  RH WIND       PRES   REMARKS
MCCALL         PTCLDY    61  45  55 CALM      30.04R
HAILEY         CLEAR     68  41  37 NW8       30.07S
STANLEY          N/A     56  36  47 CALM      30.14F
SALMON         CLEAR     73  45  35 SW9       29.91S
CHALLIS        CLEAR     75  38  26 W13       30.00S
$$

IDZ002-004-006-007-026-240700-
NORTHERN IDAHO


CITY           SKY/WX    TMP DP  RH WIND       PRES   REMARKS
LEWISTON       CLOUDY    67  47  48 NW9       30.05S
LOWELL           N/A     70  47  43 SE3       30.07S
COEUR D`ALENE  CLOUDY    59  52  77 SW10G16   30.05R
MULLAN PASS    CLOUDY    45  44  97 VRB3      30.14R
$$


USA.gov is the U.S. government's official web portal to all federal, state and local government web resources and services.